Meteo Giornale » Osservazioni meteo Egitto » Cairo

ore: 15:30 - Osservazioni Meteo Cairo
Lat. 30° 8' N Lon. 31° 24' E Alt. 64 metri s.l.m.

nuvoloso Africa/Cairo

22 °C

Nuvoloso

Temp. 24 Ore

15 °C

38 °C

Sud/Sud-Ovest

9.3 Km/h

Dew point 5 °C

Umidità 32 %

Visibilità  6 Km

Il sole sorge alle ore 06:33

Il sole tramonta alle ore 16:55

Data e Ora Cielo e Fenomeni T °C DP °C Um. % Pres. hPa Vis. km Vento km/h
Oggi h: 15:30 nuvoloso Nuvoloso 22 5 32 1016 6 S/SO 9.3
Oggi h: 15:00 nuvoloso Nuvoloso 22 5 32 1016 6 S/SO 9.3
Oggi h: 14:00 poco_nuvoloso Poco Nuvoloso 23 5 31 1016 6 S/SO 9.3
Oggi h: 13:00 sereno Sereno 23 5 31 1016 6 N 5.5
Oggi h: 12:00 sereno Sereno 22 6 35 1017 10 O/SO 7.4
Oggi h: 11:00 sereno Sereno 22 6 35 1018 10 N 3.7
Oggi h: 10:00 sereno Sereno 20 6 39 1018 6 SO 7.4
Oggi h: 09:00 sereno Sereno 18 8 51 1018 6 O 7.4
Oggi h: 08:00 sereno Sereno 17 6 48 1018 6 N 3.7
Oggi h: 07:00 sereno Sereno 15 5 51 1018 6 S/SE 11.1
Oggi h: 06:00 sereno Sereno 15 6 54 1018 6 SE 14.8
Oggi h: 05:00 sereno Sereno 15 6 54 1017 6 N 5.5
Oggi h: 04:00 sereno Sereno 15 6 54 1017 6 N 0
Oggi h: 03:00 sereno Sereno 15 6 54 1017 6 E/SE 9.3
Oggi h: 02:00 sereno Sereno 15 7 58 1017 6 E 9.3
Oggi h: 00:00 nuvoloso Nuvoloso 16 7 55 1018 6 E 13
Ieri h: 23:30 nuvoloso Nuvoloso 16 7 55 1018 6 E 9.3
Ieri h: 23:00 nuvoloso Nuvoloso 16 7 55 1018 6 E 9.3
Ieri h: 22:30 nuvoloso Nuvoloso 16 8 58 1018 6 N 5.5
Ieri h: 22:00 nuvoloso Nuvoloso 17 8 55 1018 6 N 5.5
Ieri h: 21:30 nuvoloso Nuvoloso 17 8 55 1018 6 N 5.5
Ieri h: 21:00 nuvoloso Nuvoloso 17 8 55 1018 6 N 5.5
Ieri h: 20:30 nuvoloso Nuvoloso 17 8 55 1017 6 E/NE 11.1
Ieri h: 20:00 nuvoloso Nuvoloso 18 8 51 1017 6 E/NE 11.1
Ieri h: 19:30 nuvoloso Nuvoloso 18 8 51 1017 6 N/NE 7.4
Ieri h: 19:00 nuvoloso Nuvoloso 19 8 48 1017 6 N/NE 7.4
Ieri h: 18:30 nuvoloso Nuvoloso 20 8 45 1016 6 N/NO 9.3
Ieri h: 18:00 nuvoloso Nuvoloso 20 8 45 1016 6 N/NO 9.3
Ieri h: 17:00 nuvoloso Nuvoloso 21 8 43 1016 6 NO 7.4
Ieri h: 16:30 nuvoloso Nuvoloso 21 8 43 1016 6 N 3.7
Ieri h: 16:00 nuvoloso Nuvoloso 21 8 43 1015 6 O/NO 7.4
Ieri h: 15:30 nuvoloso Nuvoloso 21 8 43 1015 6 O/NO 9.3
Ieri h: 15:00 nuvoloso Nuvoloso 38 8 16 1015 6 N 0